Location: Newark
(42.8481°N, 0.4872°E)
Time: 08:13:17
(UTC+00:00)

Vanguard 2 - Pass Details

Date: 01 November 2020
Orbit: 554 x 2937 km, 32.9° (Epoch: 28 November)

Event Time Altitude Azimuth Distance (km) Brightness Sun altitude
Rises 01:19:56 0° 277° (W) 6,614 - -54.7°
Reaches altitude 10° 01:25:33 10° 265° (W) 5,731 - -54.0°
Maximum altitude 01:37:47 24° 222° (SW) 4,611 - -52.3°
Drops below altitude 10° 01:49:02 10° 177° (S) 5,190 - -50.7°
Sets 01:53:51 0° 164° (SSE) 5,873 - -50.0°
